[[{"header":{"parameterUnit":"m.s-1","parameterCategory":1,"la1":30.2991,"la2":30.254,"lo1":-89.0895,"lo2":-89.0444,"dy":0.0017,"dx":0.0017,"nx":28,"ny":28,"refTime":"2024-10-20T21:00:00:Z","depth":0,"parameterNumber":2,"parameterNumberName":"U-component_of_WINDS"},"data":[0,0,0,0,0,0,0,0,0,0,0,0,0,0,0,0,0,0,0,0,0,0,0,0,0,0,0,0,0,0,0,0,0,0,0,0,0,0,0,0,0,0,0,0,0,0,0,0,0,0,0,0,0,0,0,0,0,0,-1.6445,-1.6445,0,-1.6392,-1.6391,-1.639,-1.6316,-1.6315,-1.6313,-1.6312,-1.6259,-1.6259,-1.6259,0,0,0,0,0,0,0,0,0,0,0,0,0,-1.6487,-1.6486,-1.6445,-1.6445,-1.6444,-1.6392,-1.6391,-1.639,-1.6316,-1.6315,-1.6313,-1.6312,-1.6259,-1.6259,-1.6259,0,0,0,0,0,0,0,0,0,0,0,0,0,-1.6455,-1.6486,-1.6445,-1.6401,-1.6396,-1.6392,-1.6391,-1.639,-1.6316,-1.6315,-1.6313,-1.6311,-1.626,-1.6259,-1.6259,-1.6295,0,0,-1.6258,-1.6258,0,0,0,0,0,0,0,0,-1.6457,-1.6453,-1.6408,-1.6404,-1.6399,-1.6358,-1.6386,-1.6358,-1.6317,-1.6347,-1.6312,-1.631,-1.6294,-1.6291,-1.6285,-1.6292,-1.629,-1.6258,-1.6258,-1.6257,-1.6257,0,0,0,0,0,0,0,-1.6459,-1.6455,-1.6424,-1.6407,-1.6402,-1.6384,-1.6378,-1.6381,-1.6332,-1.6344,-1.6338,-1.6333,-1.6291,-1.6285,-1.6283,-1.6289,-1.6258,-1.6258,-1.6257,-1.6257,-1.6328,-1.633,0,0,0,0,0,0,-1.6467,-1.6457,-1.6426,-1.6422,-1.6423,-1.6385,-1.6378,-1.6373,-1.6331,-1.6323,-1.6335,-1.633,-1.6287,-1.6284,-1.6281,-1.6323,-1.6257,-1.6257,-1.6257,-1.6326,-1.6328,-1.6331,0,0,0,0,0,0,-1.6469,-1.6465,-1.6428,-1.6438,-1.6432,-1.6386,-1.6382,-1.6373,-1.6367,-1.6324,-1.6316,-1.6338,-1.6285,-1.6281,-1.6293,-1.632,-1.6257,-1.6257,-1.6323,-1.6327,-1.6329,-1.6407,0,0,0,0,0,0,-1.647,-1.6466,-1.6478,-1.6439,-1.6432,-1.644,-1.6384,-1.6374,-1.6367,-1.636,-1.6325,-1.6317,-1.6283,-1.6294,-1.6292,-1.6319,-1.6256,-1.6321,-1.6325,-1.6328,-1.6402,-1.6412,-1.6422,0,0,0,0,0,-1.6472,-1.6502,-1.6479,-1.6476,-1.6446,-1.6441,-1.6437,-1.6397,-1.6369,-1.6382,-1.6355,-1.6318,-1.6317,-1.6295,-1.6293,-1.632,-1.6319,-1.6324,-1.6328,-1.6398,-1.641,-1.6421,0,0,0,0,0,0,-1.6546,-1.6496,-1.647,-1.6488,-1.647,-1.6429,-1.6444,-1.6412,-1.6401,-1.6395,-1.6346,-1.6339,-1.6357,-1.6339,-1.6316,-1.6355,-1.6313,-1.6317,-1.6366,-1.6378,-1.6388,-1.6393,-1.6256,0,0,0,0,0,-1.6564,-1.6563,-1.652,-1.654,-1.6532,-1.649,-1.6486,-1.6457,-1.6436,-1.6428,-1.6401,-1.6383,-1.6379,-1.6377,-1.637,-1.6398,-1.6392,-1.6416,-1.6426,-1.6434,-1.6439,-1.6457,-1.6468,-1.6346,-1.6346,-1.6346,0,0,-1.6602,-1.6575,-1.6577,-1.6555,-1.6537,-1.6539,-1.6484,-1.6487,-1.6489,-1.6428,-1.6438,-1.6418,-1.6395,-1.6416,-1.6424,-1.6402,-1.6471,-1.644,-1.6447,-1.6448,-1.6463,-1.6474,-1.6485,-1.6349,-1.6348,-1.6348,0,0,-1.6673,-1.6651,-1.6667,-1.6651,-1.6624,-1.6596,-1.6601,-1.6565,-1.6549,-1.6558,-1.6514,-1.6515,-1.6508,-1.6494,-1.6486,-1.6555,-1.6522,-1.6554,-1.6606,-1.6624,-1.6633,-1.6642,-1.667,-1.668,-1.6559,-1.6559,-1.6559,0,-1.6724,-1.6724,-1.668,-1.6687,-1.668,-1.6625,-1.6643,-1.6629,-1.6602,-1.6599,-1.6574,-1.6566,-1.6546,-1.6565,-1.6582,-1.6576,-1.6581,-1.6559,-1.6635,-1.6643,-1.6651,-1.6677,-1.6687,-1.6563,-1.6563,-1.6562,-1.6562,0,-1.679,-1.6791,-1.6808,-1.6784,-1.6778,-1.679,-1.6749,-1.6749,-1.6721,-1.6696,-1.6708,-1.6682,-1.6671,-1.6673,-1.6645,-1.6689,-1.6676,-1.6644,-1.6601,-1.6667,-1.6691,-1.6701,-1.657,-1.6568,-1.6567,-1.6566,0,0,-1.6906,-1.6859,-1.6866,-1.6856,-1.6824,-1.6825,-1.6836,-1.6825,-1.6827,-1.681,-1.6821,-1.6817,-1.6788,-1.6779,-1.6749,-1.6764,-1.6825,-1.673,-1.6729,-1.6752,-1.6876,-1.6902,-1.6914,-1.6802,-1.6803,-1.6805,-1.6879,0,-1.6973,-1.6989,-1.695,-1.6977,-1.6979,-1.6928,-1.6938,-1.692,-1.6898,-1.6898,-1.6873,-1.6873,-1.6832,-1.6827,-1.6839,-1.6815,-1.6849,-1.6808,-1.6813,-1.6814,-1.6824,-1.6926,-1.6954,-1.7025,-1.6887,-1.6889,-1.689,0,-1.7054,-1.7043,-1.707,-1.7039,-1.7038,-1.7048,-1.7037,-1.7036,-1.7016,-1.6999,-1.699,-1.6956,-1.6967,-1.6924,-1.694,-1.6913,-1.6913,-1.6901,-1.6903,-1.6904,-1.6858,-1.6933,-1.7046,-1.7058,-1.6903,-1.6902,-1.6901,0,-1.7141,-1.7132,-1.7148,-1.714,-1.7103,-1.7112,-1.7098,-1.7075,-1.7073,-1.7063,-1.7061,-1.7052,-1.7048,-1.7044,-1.7009,-1.698,-1.7031,-1.6984,-1.7019,-1.702,-1.7034,-1.7034,-1.7152,-1.7029,-1.7029,-1.7028,-1.7028,0,-1.7221,-1.724,-1.7186,-1.7197,-1.7217,-1.7173,-1.7196,-1.7176,-1.7157,-1.7164,-1.7118,-1.7126,-1.7078,-1.7081,-1.7054,-1.7073,-1.7071,-1.7059,-1.7053,-1.7065,-1.7067,-1.7066,-1.7062,-1.7031,-1.7031,-1.703,-1.703,0,-1.7322,-1.7286,-1.7301,-1.7265,-1.7257,-1.7275,-1.7245,-1.7254,-1.7229,-1.7239,-1.7238,-1.72,-1.7201,-1.7165,-1.7159,-1.7141,-1.7174,-1.7157,-1.7181,-1.7177,-1.7216,-1.7214,-1.7339,-1.7355,-1.7219,-1.7221,-1.7222,0,-1.7377,-1.7391,-1.7358,-1.7359,-1.7347,-1.7349,-1.7347,-1.7304,-1.7303,-1.7283,-1.7295,-1.7293,-1.7289,-1.7295,-1.7267,-1.7263,-1.7247,-1.7291,-1.7247,-1.726,-1.7252,-1.7253,-1.7256,-1.7302,-1.7304,-1.7305,-1.7306,0,-1.7481,-1.7463,-1.746,-1.7452,-1.745,-1.7442,-1.7431,-1.7435,-1.7388,-1.739,-1.7391,-1.7388,-1.7383,-1.7383,-1.7374,-1.7361,-1.7328,-1.732,-1.7329,-1.7344,-1.7359,-1.7355,-1.7211,-1.7318,-1.7317,-1.7316,-1.7315,-1.7315,-1.7563,-1.7574,-1.7553,-1.7553,-1.754,-1.7531,-1.7539,-1.7516,-1.7515,-1.7508,-1.7483,-1.749,-1.7472,-1.7457,-1.7447,-1.7452,-1.7431,-1.7442,-1.7446,-1.745,-1.7459,-1.7356,-1.745,-1.745,-1.7449,-1.7449,-1.7449,0,-1.7667,-1.7651,-1.7651,-1.7638,-1.7638,-1.7605,-1.7592,-1.7595,-1.7601,-1.7587,-1.7584,-1.7588,-1.7588,-1.7561,-1.7558,-1.7568,-1.7553,-1.7569,-1.757,-1.7568,-1.7477,-1.7471,-1.7582,-1.7582,-1.7582,-1.7582,-1.7582,-1.7582,-1.7721,-1.774,-1.772,-1.7733,-1.7717,-1.7723,-1.7719,-1.7712,-1.7701,-1.7706,-1.7706,-1.7688,-1.767,-1.7666,-1.7666,-1.7658,-1.7661,-1.7683,-1.7671,-1.7587,-1.7574,-1.7562,-1.7556,-1.7683,-1.7683,-1.7762,-1.7762,-1.7763]},{"header":{"parameterUnit":"m.s-1","parameterCategory":1,"la1":30.2991,"la2":30.254,"lo1":-89.0895,"lo2":-89.0444,"dy":0.0017,"dx":0.0017,"nx":28,"ny":28,"refTime":"2024-10-20T21:00:00:Z","depth":0,"parameterNumber":3,"parameterNumberName":"V-component_of_WINDS"},"data":[0,0,0,0,0,0,0,0,0,0,0,0,0,0,0,0,0,0,0,0,0,0,0,0,0,0,0,0,0,0,0,0,0,0,0,0,0,0,0,0,0,0,0,0,0,0,0,0,0,0,0,0,0,0,0,0,0,0,0.367,0.367,0,0.3679,0.3679,0.3679,0.3687,0.3688,0.3688,0.3688,0.3696,0.3696,0.3696,0,0,0,0,0,0,0,0,0,0,0,0,0,0.3657,0.3658,0.367,0.367,0.367,0.3679,0.3679,0.3679,0.3687,0.3688,0.3688,0.3688,0.3696,0.3696,0.3696,0,0,0,0,0,0,0,0,0,0,0,0,0,0.3664,0.3658,0.367,0.3675,0.3676,0.3679,0.3679,0.3679,0.3687,0.3688,0.3688,0.3688,0.3696,0.3696,0.3696,0.3694,0,0,0.3697,0.3697,0,0,0,0,0,0,0,0,0.3664,0.3665,0.3674,0.3675,0.3676,0.3682,0.3678,0.3684,0.3687,0.3683,0.3688,0.3688,0.3691,0.3692,0.3693,0.3695,0.3695,0.3697,0.3697,0.3697,0.3697,0,0,0,0,0,0,0,0.3663,0.3664,0.3674,0.3675,0.3675,0.3677,0.3678,0.3679,0.3686,0.3683,0.3684,0.3685,0.3691,0.3693,0.3693,0.3695,0.3697,0.3697,0.3697,0.3697,0.3694,0.3694,0,0,0,0,0,0,0.3662,0.3664,0.3673,0.3674,0.367,0.3677,0.3678,0.368,0.3686,0.3687,0.3685,0.3685,0.3692,0.3693,0.3694,0.3691,0.3697,0.3697,0.3697,0.3694,0.3694,0.3694,0,0,0,0,0,0,0.3662,0.3663,0.3673,0.3669,0.367,0.3677,0.3679,0.368,0.3682,0.3687,0.3688,0.3685,0.3693,0.3693,0.3694,0.3691,0.3697,0.3697,0.3695,0.3694,0.3694,0.3686,0,0,0,0,0,0,0.3662,0.3663,0.3663,0.3669,0.3671,0.3674,0.3679,0.368,0.3682,0.3683,0.3688,0.3689,0.3693,0.3693,0.3694,0.3692,0.3697,0.3695,0.3694,0.3694,0.3687,0.3686,0.3685,0,0,0,0,0,0.3661,0.366,0.3663,0.3664,0.3671,0.3674,0.3674,0.3679,0.3682,0.3681,0.3685,0.3689,0.3692,0.3693,0.3694,0.3692,0.3695,0.3695,0.3694,0.3687,0.3686,0.3685,0,0,0,0,0,0,0.3654,0.3661,0.3664,0.3666,0.3669,0.3675,0.3675,0.3678,0.368,0.3681,0.3687,0.3688,0.3687,0.369,0.3692,0.369,0.3694,0.3693,0.3688,0.3687,0.3686,0.3686,0.3697,0,0,0,0,0,0.3652,0.3654,0.3661,0.3661,0.3663,0.3668,0.367,0.3673,0.3677,0.3678,0.3682,0.3684,0.3686,0.3687,0.3688,0.3687,0.3688,0.3686,0.3685,0.3684,0.3684,0.3682,0.3681,0.3693,0.3693,0.3693,0,0,0.3649,0.3654,0.3655,0.366,0.3663,0.3664,0.3669,0.3671,0.3672,0.3678,0.3679,0.3681,0.3685,0.3684,0.3684,0.3686,0.3681,0.3684,0.3683,0.3683,0.3682,0.3681,0.368,0.3692,0.3692,0.3692,0,0,0.3644,0.3648,0.3648,0.3651,0.3656,0.3659,0.3659,0.3665,0.3667,0.3667,0.3672,0.3672,0.3675,0.3677,0.3678,0.3673,0.3676,0.3673,0.3668,0.3667,0.3666,0.3665,0.3662,0.3661,0.3673,0.3673,0.3673,0,0.364,0.3642,0.3648,0.3649,0.3651,0.3657,0.3656,0.3659,0.3663,0.3664,0.3666,0.3669,0.3672,0.3671,0.367,0.3671,0.367,0.3673,0.3666,0.3665,0.3664,0.3661,0.366,0.3672,0.3672,0.3673,0.3673,0,0.3636,0.3638,0.3638,0.3642,0.3644,0.3644,0.3649,0.365,0.3653,0.3656,0.3656,0.3659,0.3661,0.3661,0.3664,0.3661,0.3662,0.3665,0.3669,0.3663,0.366,0.3659,0.3672,0.3672,0.3672,0.3672,0,0,0.3627,0.3634,0.3634,0.3635,0.364,0.3641,0.3641,0.3644,0.3644,0.3646,0.3646,0.3648,0.365,0.3652,0.3655,0.3654,0.3648,0.3657,0.3657,0.3654,0.3642,0.364,0.3639,0.365,0.365,0.365,0.3642,0,0.3623,0.3624,0.3628,0.3628,0.3629,0.3634,0.3634,0.3636,0.3639,0.3639,0.3642,0.3643,0.3647,0.3647,0.3646,0.3649,0.3645,0.3649,0.3648,0.3648,0.3647,0.3637,0.3635,0.3627,0.3641,0.3641,0.3641,0,0.3618,0.362,0.3619,0.3623,0.3624,0.3624,0.3625,0.3626,0.3629,0.3631,0.3632,0.3635,0.3634,0.3638,0.3637,0.3639,0.3639,0.364,0.364,0.364,0.3644,0.3636,0.3625,0.3624,0.364,0.364,0.364,0,0.361,0.3613,0.3613,0.3614,0.3619,0.3619,0.362,0.3623,0.3624,0.3625,0.3625,0.3626,0.3627,0.3627,0.363,0.3633,0.3628,0.3632,0.3628,0.3628,0.3627,0.3627,0.3615,0.3628,0.3628,0.3628,0.3628,0,0.3605,0.3604,0.361,0.361,0.3608,0.3613,0.3612,0.3614,0.3616,0.3615,0.362,0.3619,0.3624,0.3623,0.3626,0.3623,0.3624,0.3625,0.3625,0.3624,0.3624,0.3624,0.3624,0.3628,0.3628,0.3628,0.3628,0,0.3596,0.36,0.36,0.3604,0.3605,0.3604,0.3607,0.3607,0.3609,0.3609,0.3609,0.3612,0.3612,0.3615,0.3615,0.3617,0.3613,0.3615,0.3612,0.3613,0.3608,0.3608,0.3596,0.3594,0.3608,0.3608,0.3608,0,0.3592,0.3592,0.3596,0.3596,0.3597,0.3598,0.3598,0.3602,0.3603,0.3604,0.3603,0.3603,0.3604,0.3602,0.3605,0.3604,0.3606,0.3601,0.3606,0.3604,0.3605,0.3604,0.3604,0.36,0.36,0.36,0.36,0,0.3584,0.3586,0.3587,0.3588,0.3588,0.359,0.3591,0.359,0.3595,0.3595,0.3594,0.3594,0.3594,0.3594,0.3594,0.3595,0.3598,0.3598,0.3597,0.3596,0.3594,0.3594,0.3609,0.3599,0.3599,0.3599,0.3599,0.3599,0.3577,0.3577,0.3579,0.358,0.3581,0.3582,0.3581,0.3583,0.3583,0.3584,0.3586,0.3585,0.3586,0.3586,0.3587,0.3585,0.3587,0.3586,0.3585,0.3585,0.3584,0.3595,0.3585,0.3585,0.3585,0.3585,0.3585,0,0.3569,0.3571,0.3571,0.3572,0.3572,0.3575,0.3576,0.3576,0.3575,0.3576,0.3576,0.3575,0.3574,0.3576,0.3575,0.3573,0.3574,0.3573,0.3573,0.3573,0.3582,0.3583,0.3572,0.3572,0.3572,0.3572,0.3572,0.3572,0.3565,0.3563,0.3565,0.3564,0.3565,0.3565,0.3565,0.3565,0.3566,0.3564,0.3564,0.3565,0.3566,0.3565,0.3564,0.3564,0.3563,0.3561,0.3562,0.3571,0.3572,0.3573,0.3574,0.3561,0.3561,0.3552,0.3552,0.3552]}]]